Weather History for Hickory, NC

Change the Weather History Date:

Wednesday, December 25, 2013

  Actual Average Record
Temperature  
Mean Temperature 28 °F -  
Max Temperature 37 °F 46 °F 74 °F (1955)
Min Temperature 19 °F 28 °F 2 °F (1983)
Degree Days  
Heating Degree Days 37    
Moisture  
Dew Point 10 °F    
Average Humidity 49    
Maximum Humidity 74    
Minimum Humidity 24    
Precipitation  
Precipitation 0.00 in - - ()
Sea Level Pressure  
Sea Level Pressure 30.42 in    
Wind  
Wind Speed 3 mph (North)    
Max Wind Speed 7 mph    
Max Gust Speed -    
Visibility 10 miles    
Events      
Averages and records for this station are not official NWS values.
T = Trace of Precipitation, MM = Missing Value Source: NWS Daily Summary

Daily Weather History Graph

Daily Weather History Graph

Search for Another Location

Airport:

Trip Planner

Search our weather history database for the weather conditions in past years. The results will help you decide how hot, cold, wet, or windy it might be!

Date:

Astronomy

Dec. 25, 2013 Rise Set
Actual Time 7:33 AM EST 5:18 PM EST
Civil Twilight 7:05 AM EST 5:46 PM EST
Nautical Twilight 6:33 AM EST 6:18 PM EST
Astronomical Twilight 6:01 AM EST 6:49 PM EST
Moon 12:10 AM EST (12/25) 12:11 PM EST (12/25)
Length of Visible Light 10h 41m
Length of Day
9h 44m
Waning Gibbous, 49% of the Moon is Illuminated
Dec 25
Waning Gibbous
Jan 1
New
Jan 7
First Quarter
Jan 15
Full
Jan 24
Last Quarter

Hourly Weather History & Observations

Time (EST) Temp. Windchill Dew Point Humidity Pressure Visibility Wind Dir Wind Speed Gust Speed Precip Events Conditions
12:53 AM 25.0 °F 19.3 °F 12.9 °F 60% 30.42 in 10.0 mi NE 4.6 mph - N/A   Clear
1:53 AM 24.1 °F 18.2 °F 12.0 °F 60% 30.42 in 10.0 mi ENE 4.6 mph - N/A   Clear
2:53 AM 23.0 °F 14.7 °F 12.0 °F 63% 30.42 in 10.0 mi NE 6.9 mph - N/A   Clear
3:53 AM 23.0 °F 17.0 °F 12.9 °F 65% 30.42 in 10.0 mi NNW 4.6 mph - N/A   Clear
4:53 AM 21.9 °F 17.2 °F 12.0 °F 66% 30.43 in 10.0 mi North 3.5 mph - N/A   Clear
5:53 AM 21.9 °F - 10.0 °F 60% 30.44 in 10.0 mi Calm Calm - N/A   Clear
6:53 AM 19.9 °F - 12.9 °F 74% 30.47 in 10.0 mi Calm Calm - N/A   Clear
7:53 AM 19.9 °F 14.9 °F 12.0 °F 71% 30.49 in 10.0 mi WNW 3.5 mph - N/A   Clear
8:53 AM 24.1 °F 19.7 °F 15.1 °F 69% 30.51 in 10.0 mi West 3.5 mph - N/A   Clear
9:53 AM 28.9 °F 25.2 °F 6.1 °F 38% 30.52 in 10.0 mi North 3.5 mph - N/A   Clear
10:53 AM 30.9 °F - 6.1 °F 35% 30.51 in 10.0 mi Calm Calm - N/A   Clear
11:53 AM 33.1 °F - 3.0 °F 28% 30.48 in 10.0 mi Calm Calm - N/A   Clear
12:53 PM 35.1 °F - 6.1 °F 30% 30.43 in 10.0 mi Calm Calm - N/A   Clear
1:53 PM 37.0 °F - 8.1 °F 30% 30.40 in 10.0 mi Calm Calm - N/A   Clear
2:53 PM 37.9 °F - 3.9 °F 24% 30.38 in 10.0 mi Calm Calm - N/A   Clear
3:53 PM 37.9 °F - 5.0 °F 25% 30.38 in 10.0 mi Calm Calm - N/A   Clear
4:53 PM 36.0 °F - 8.1 °F 31% 30.38 in 10.0 mi Calm Calm - N/A   Clear
5:53 PM 32.0 °F - 8.1 °F 37% 30.38 in 10.0 mi Calm Calm - N/A   Clear
6:53 PM 32.0 °F - 7.0 °F 35% 30.38 in 10.0 mi Calm Calm - N/A   Clear
7:53 PM 30.0 °F - 10.0 °F 43% 30.38 in 10.0 mi Calm Calm - N/A   Clear
8:53 PM 30.0 °F - 9.0 °F 41% 30.38 in 10.0 mi Calm Calm - N/A   Clear
9:53 PM 26.1 °F - 15.1 °F 63% 30.38 in 10.0 mi Calm Calm - N/A   Clear
10:53 PM 28.0 °F - 10.9 °F 49% 30.38 in 10.0 mi Calm Calm - N/A   Clear
11:53 PM 25.0 °F - 17.1 °F 72% 30.35 in 10.0 mi Calm Calm - N/A   Clear